STARLINK-1190, 45083

Orbit data source: Space-Track

STARLINK-1190, 45083 is a payload satellite owned by SpaceX/Seattle (US) in LEO that was launched on Wed, 29 Jan 2020 UTC via an FALCON 9 launch vehicle from the Air Force Eastern Test Range (AFETR). Payload-class satellites include a variety of spacecraft equipped with specific instruments for various scientific and technological missions. These include communications satellites like Starlink; space stations such as the ISS; scientific satellites like the Hubble; Earth observation satellites from companies like Planet Labs, Umbra, and HawkEye 360; GPS; miniature CubeSats for education and research; and military/defense satellites.

Loading next visibility...
Identifier
45083, 2020-006AR
Orbit
LEO
Country
Flag of USUS
Related business
Manufacturer
SpaceX/Seattle
Mission
Partially operational Commercial Communications
Bus & Motor
STARLINK, Unknown motor
Mass
260 kg wet, ~248 kg dry
Launch date (UTC)
2020-01-29 (6 years ago)
Launch vehicle
FALCON 9
Launch site
Air Force Eastern Test Range (AFETR)
Object type
Payload
Rocket body
Debris
Shape & HBR
Box + 1 Pan, 4.4 m
Radar Cross Section
13.562 m², Large (>1 m²)

Expand to show TLE details & history
Last TLE update: 2 days ago

TLE from 2 days ago
0 STARLINK-1190
1 45083U 20006AR  25259.16770193  .00104750  00000-0  77162-3 0  9998
2 45083  53.0497 304.7570 0008011  15.6901 344.4364 15.72221831310798
Epoch: 2025-09-16T04:01Z
TLE epoch observation values (Epoch: 2025-09-16T04:01:29.446Z)
Latitude
0.00002°
Longitude
-110.97756°
Altitude
348.259 km
Speed
7.704 km/s
True Right ascension
20h 19m 01s
True Declination
0° 00' 00"
Sunlit
Object was in full shadow at epoch
Visualization orbit readout
Latitude
Unknown
Longitude
Unknown
Altitude
Unknown
Speed
Unknown
Apparent Right ascension
Unknown
Apparent Declination
Unknown
Sunlit
N/A
Visualization observer readout
Local Sidereal Time
08:22:18
Azimuth
Unknown
Elevation
Unknown
Doppler factor
Unknown
Orbital elements
Apogee altitude
358.22 km
Perigee altitude
347.435 km
Semi-major axis
6,730.965 km
Eccentricity
0.0008
Inclination
53.0497°
RAAN
304.757°
Arg. of periapsis
15.6901°
True anomaly
344.41175°
Mean anomaly
344.4364°
Eccentric anomaly
344.42408°
Mean motion
3.93031 °/min
Orbital period
91.6 mins
BSTAR
0.00077162
Loading maneuver chart data...
Computing Atmospheric mass density...

Documentation

Showing up to 5 results
|